Tracking 19854 objects as of 23-Sep-2019
HD Live streaming from Space Station
objects crossing your sky now

FENGYUN 1C DEB

Track FENGYUN 1C DEB now!
10-day predictions


NORAD ID: 33730
Int'l Code: 1999-025DHT
Perigee: 733.7 km
Apogee: 823.2 km
Inclination: 99.0 °
Period: 100.3 minutes
Semi major axis: 7149 km
RCS: 0.0099 m2 (small)
Launch date: May 10, 1999
Source: People's Republic of China (PRC)
Launch site: Taiyaun Space Center, China (TSC)

Note: This is SATELLITE DEBRIS
aabbcc
Your satellite tracking list
Your tracking list is empty




NASA's NSSDC Master Catalog

Two Line Element Set (TLE):
1 33730U 99025DHT 19265.47763212  .00000499  00000-0  18403-3 0  9997
2 33730  99.0467 147.5135 0062624 269.2578  90.1430 14.36129082630482
Source of the keplerian elements: AFSPC